TimeCST,TemperatureF,Dew PointF,Humidity,Sea Level PressureIn,VisibilityMPH,Wind Direction,Wind SpeedMPH,Gust SpeedMPH,PrecipitationIn,Events,Conditions,WindDirDegrees,DateUTC
12:53 AM,17.1,10.0,74,30.18,10.0,WSW,6.9,-,N/A,,Clear,250,2013-01-04 06:53:00
1:53 AM,16.0,9.0,74,30.17,10.0,Calm,Calm,-,N/A,,Clear,0,2013-01-04 07:53:00
2:53 AM,16.0,7.0,68,30.17,10.0,West,3.5,-,N/A,,Clear,270,2013-01-04 08:53:00
3:53 AM,18.0,8.1,65,30.15,10.0,WSW,12.7,-,N/A,,Clear,250,2013-01-04 09:53:00
7:53 AM,14.0,6.1,71,30.18,10.0,WSW,9.2,-,N/A,,Clear,250,2013-01-04 13:53:00
8:53 AM,14.0,7.0,74,30.18,10.0,WSW,9.2,-,N/A,,Clear,250,2013-01-04 14:53:00
9:53 AM,16.0,7.0,68,30.19,10.0,WSW,5.8,-,N/A,,Clear,240,2013-01-04 15:53:00
10:53 AM,19.9,10.0,65,30.19,10.0,WSW,6.9,-,N/A,,Clear,240,2013-01-04 16:53:00
11:53 AM,23.0,12.0,63,30.18,10.0,WSW,5.8,-,N/A,,Clear,250,2013-01-04 17:53:00
12:53 PM,25.0,14.0,63,30.16,10.0,NW,5.8,-,N/A,,Clear,310,2013-01-04 18:53:00
1:53 PM,25.0,15.1,66,30.14,10.0,WNW,4.6,-,N/A,,Clear,300,2013-01-04 19:53:00
2:53 PM,26.1,15.1,63,30.13,10.0,Calm,Calm,-,N/A,,Clear,0,2013-01-04 20:53:00
3:53 PM,27.0,16.0,63,30.12,10.0,Calm,Calm,-,N/A,,Clear,0,2013-01-04 21:53:00
4:53 PM,23.0,14.0,68,30.11,10.0,Calm,Calm,-,N/A,,Clear,0,2013-01-04 22:53:00
5:53 PM,17.1,10.9,77,30.12,10.0,Calm,Calm,-,N/A,,Clear,0,2013-01-04 23:53:00
6:53 PM,15.1,8.1,74,30.13,10.0,WNW,3.5,-,N/A,,Clear,300,2013-01-05 00:53:00
7:53 PM,14.0,8.1,77,30.13,10.0,Calm,Calm,-,N/A,,Clear,0,2013-01-05 01:53:00
8:53 PM,17.1,10.9,77,30.11,10.0,WSW,4.6,-,N/A,,Clear,240,2013-01-05 02:53:00
9:53 PM,15.1,10.0,80,30.09,10.0,SW,4.6,-,N/A,,Clear,230,2013-01-05 03:53:00
10:53 PM,15.1,10.0,80,30.08,10.0,SW,6.9,-,N/A,,Clear,230,2013-01-05 04:53:00
11:53 PM,14.0,9.0,80,30.08,10.0,West,9.2,-,N/A,,Clear,260,2013-01-05 05:53:00